Regional Weather Roundup
Issued by NWS

Home | Current Version | Previous Version | Text Only | Print | Product List | Glossary Off
Versions: 1 2 3 4 5 6 7 8 9 10 11 12 13 14 15 16 17 18 19 20 21 22 23 24 25 26 27 28 29 30 31 32 33 34 35 36 37 38 39 40 41 42 43 44 45 46 47 48 49 50

000
ASUS43 KFSD 290110
RWRSD

WEATHER ROUNDUP FOR SOUTH DAKOTA
NATIONAL WEATHER SERVICE SIOUX FALLS SD
800 PM CDT FRI APR 28 2017

NOTE: "FAIR" INDICATES FEW OR NO CLOUDS BELOW 12,000 FEET WITH NO
SIGNIFICANT WEATHER AND/OR OBSTRUCTIONS TO VISIBILITY.


SDZ001>005-009-010-012>017-290200-
NORTHWEST AND NORTH CENTRAL SOUTH DAKOTA

CITY           SKY/WX    TMP DP  RH WIND       PRES   REMARKS
BUFFALO          N/A     50  24  36 E9        30.04R
FAITH            N/A     47  22  37 E8        30.09R
MOBRIDGE       MOCLDY    52  10  18 NE9       30.06R
$$

SDZ012>016-024>037-041>051-057-063-072>074-290200-
SOUTHWEST AND SOUTH CENTRAL SOUTH DAKOTA

CITY           SKY/WX    TMP DP  RH WIND       PRES   REMARKS
RAPID CTY ARPT CLOUDY    45  26  47 NE8       30.09R
PIERRE         PTCLDY    49  19  30 NE8       30.07R
CUSTER         CLOUDY    32  22  66 NE8       30.06R WCI  25
ELLSWORTH AFB  CLOUDY    46  26  45 NE7       30.09R
PHILIP         PTCLDY    48  21  34 NE12      30.09R
PINE RIDGE     CLOUDY    44  27  51 NE14      30.07R
SPEARFISH      FAIR      41  27  56 E6        30.10R
WINNER         MOCLDY    50  26  39 NE13      30.05R
$$

SDZ004>011-016>023-039-040-290200-
NORTHEAST SOUTH DAKOTA

CITY           SKY/WX    TMP DP  RH WIND       PRES   REMARKS
ABERDEEN       PTCLDY    50  18  28 NE12      30.08R
WATERTOWN      CLOUDY    46  19  34 NE12      30.04R
BROOKINGS      PTCLDY    45  25  45 N13       30.04R
SISSETON         N/A     50  18  28 NE17      30.07R
$$

SDZ017-020-022-023-036>040-048>070-290200-
SOUTHEAST SOUTH DAKOTA

CITY           SKY/WX    TMP DP  RH WIND       PRES   REMARKS
SIOUX FALLS    MOCLDY    46  32  58 NE10      30.01R
HURON          CLEAR     48  20  32 NE14      30.05R
CHAMBERLAIN    PTCLDY    51  22  31 N8        30.06R
MITCHELL       CLEAR     51  22  31 NE16      30.06R
YANKTON        CLOUDY    46  30  53 NE7       30.02R
$$

ABBREVIATIONS USED IN REMARKS
   TC - TEMPERATURE IN CELSIUS
  WCI - WIND CHILL INDEX
   HX - HEAT INDEX
  VSB - VISIBILITY





USA.gov is the U.S. government's official web portal to all federal, state and local government web resources and services.